This demonstration page uses our WeatherBlox Daily Observations layout. Learn more.

Left ArrowRight Arrow

Hourly Observations for June 1, 2018

Temp ( °F °C ) Dew Point ( °F °C ) Humidity (%) Winds ( mph kmh ) Pressure ( in mb ) Visibility ( mi km ) Precip ( " mm )
6:30 am 06:30 Cloudy with Light Rain 68 20 64 18 88 88 Calm 29.83 1010 5 8 N/A
6:45 am 06:45 Cloudy with Light Rain 68 20 64 18 88 88 Calm 29.83 1010 5 8 N/A
7:45 am 07:45 Cloudy 68 20 64 18 88 88 S 6 9 29.85 1011 7 11 N/A
8:50 am 08:50 Cloudy 68 20 64 18 88 88 SSW 6 9 29.85 1011 10 16 N/A
9:45 am 09:45 Mostly Cloudy 70 21 64 18 83 83 Calm 29.85 1011 10 16 N/A
10:05 am 10:05 Mostly Cloudy 72 22 66 19 83 83 W 5 7 29.85 1011 10 16 N/A
10:45 am 10:45 Cloudy 73 23 66 19 78 78 SSW 5 7 29.85 1011 10 16 N/A
11:20 am 11:20 Mostly Cloudy 73 23 66 19 78 78 Calm 29.88 1012 10 16 N/A
11:45 am 11:45 Mostly Cloudy 75 24 68 20 78 78 WSW 7 11 29.88 1012 10 16 N/A
12:45 pm 12:45 Partly Cloudy 77 25 66 19 69 69 SW 5 7 29.85 1011 10 16 N/A
1:45 pm 13:45 Partly Cloudy 81 27 64 18 58 58 W 6 9 29.85 1011 10 16 N/A
2:53 pm 14:53 Partly Cloudy 82 28 66 19 58 58 WSW 7 11 29.85 1011 10 16 N/A
3:53 pm 15:53 Partly Cloudy 84 29 64 18 51 51 SW 7 11 29.83 1010 10 16 N/A
4:59 pm 16:59 Partly Cloudy 84 29 64 18 51 51 SW 10 17 29.80 1009 10 16 N/A
5:49 pm 17:49 Partly Cloudy 86 30 64 18 49 49 WSW 9 15 29.80 1009 10 16 N/A
6:45 pm 18:45 Cloudy with Strong Thunderstorms 68 20 61 16 78 78 NNE 24 39 29.85 1011 2 2 N/A
7:03 pm 19:03 Mostly Cloudy with Light Rain 68 20 63 17 83 83 WNW 12 19 29.85 1011 4 6 N/A
7:45 pm 19:45 Mostly Cloudy 70 21 64 18 83 83 SSW 3 6 29.85 1011 10 16 N/A
8:45 pm 20:45 Partly Cloudy 72 22 66 19 83 83 SW 5 7 29.85 1011 10 16 N/A
9:45 pm 21:45 Partly Cloudy 70 21 64 18 83 83 Calm 29.88 1012 10 16 N/A

Powered by AerisWeather